Winona, KS (67764)

9:52 PM CDT on May 05, 2015 (GMT -0500)
KKSLEVAN2 | | Change Station
CLOSE
Current Station
Personal Weather Station
Location: Levant, KS
Elevation: 3293 ft
Nearby Weather Stations

Elev 3293 ft 39.30 °N, 101.20 °W | Updated 1 minute ago

Overcast
Overcast
57.6 °F
Feels Like 57.6 °F
N
14.0
Wind Variable Wind from SSE
Gusts 18.0 mph

Today
High -- | Low -- °F
--% Chance of Precip.
Yesterday
High -- | Low -- °F
Precip. -- in
6:42 AM 8:41 PM
Waning Gibbous, 96% visible
Pressure 29.81 in
Visibility 10.0 miles
Clouds Overcast 400 ft
Dew Point 56 °F
Humidity 96%
Rainfall 0.58 in
Snow Depth Not available.
UV 0 out of 12
Pollen 1.30 out of 12
Air Quality Not available.
Flu Activity Sporadic
METAR KCBK 060235Z AUTO 14012KT 10SM OVC004 14/14 A2981 RMK AO2

More Conditions Fewer Conditions

Pressure 29.81 in
Visibility 10.0 miles
Clouds Overcast 400 ft
Dew Point 56 °F
Humidity 96%
Rainfall 0.58 in
Snow Depth Not available.
UV 0 out of 12
Pollen 1.30 out of 12
Air Quality Not available.
Flu Activity Sporadic
METAR KCBK 060235Z AUTO 14012KT 10SM OVC004 14/14 A2981 RMK AO2

More Conditions Fewer Conditions

10-Day Weather Forecast

Almanac

Astronomy

May. 05, 2015 Rise Set
Actual Time
Civil Twilight
Nautical Twilight
Astronomical Twilight
Moon
Length of Visible Light
Length of Day
Tomorrow will be .
, % of the Moon is Illuminated

Today's Extremes

State Highs State Lows

Community

WunderPhotos

Upload Photos

1,819,049 photos uploaded!

WunderBlogs® & News

Nearby

Air Quality

  Air Quality AQ Index Pollutant
Not available.

Snow Depth

Station Depth Elevation

Earthquake Activity

City Distance Mag. Time & Date
Minimum magnitude displayed is 2.5.

Coastal Water Temperatures

Place Temperature

Stations

Nearby Weather Stations

Station Location Temp. Windchill Dew Point Humidity Wind Precip. Elev Updated Type